{"data":{"norad_id":68949,"intl_designator":"2026-098AG","name":"KUIPER-00455","alt_names":[],"object_type":"PAYLOAD","status":"ACTIVE","operator":null,"country":"US","launch_date":"2026-04-30","launch_site_code":"FRGUI","launch_vehicle":null,"mission":null,"orbit_class":"UNKNOWN","rcs_meters":null,"size_class":null,"mass_kg":null,"dimensions":null,"purposes":[],"wikipedia_slug":null,"has_3d_model":false,"image_url":null,"decayed_at":null,"tle_current":{"epoch":"2026-09-19T23:51:06.314976Z","epoch_age_seconds":63098,"freshness":"FRESH","line1":"1 68949U 26098AG  26262.99382309  .00000199  00000+0  55078-4 0  9999","line2":"2 68949  51.9023   3.9250 0001522 142.8320 217.2748 14.79931393 21459","mean_motion":14.79931393,"eccentricity":0.0001522,"inclination_deg":51.9023,"raan_deg":3.925,"arg_perigee_deg":142.832,"mean_anomaly_deg":217.2748,"bstar":5.5078e-5,"rev_number":2145,"period_min":97.30180782779,"perigee_km":628.47413353411,"apogee_km":630.60727062663,"semimajor_km":7007.6777020804,"source":"CELESTRAK","updated_at":"2026-09-20T09:00:24.585891Z"}}}